Simultaneous Nadir Overpasses (SNOs) Predictions

Prediction of SNOs between METOP-C and LANDSAT-8 Satellite Orbit:

Table of predicted SNOs for the next 14.0 days since TLE Epoch: 5/18/2024
Index Date (METOP-C) Time (METOP-C) Lat,Lon (METOP-C) SZA (METOP-C ) Date (LANDSAT-8) Time (LANDSAT-8) Lat,Lon (LANDSAT-8) SZA (LANDSAT-8 ) Distance(km) Time Diff (sec)
1 05/19/2024 19:51:59 -81.02, 99.56 116.96 05/19/2024 19:52:15 -81.03, 99.75 116.94 3.27 16
2 05/19/2024 20:42:38 81.06, -92.21 63.15 05/19/2024 20:41:40 81.06, -92.18 63.13 0.42 58
3 05/22/2024 15:26:22 -81.04, 166.47 117.46 05/22/2024 15:26:27 -81.04, 166.43 117.46 0.70 5
4 05/22/2024 16:17:02 81.06, -25.70 62.60 05/22/2024 16:15:52 81.07, -25.53 62.60 3.15 70
5 05/25/2024 10:10:09 81.01, 64.63 61.91 05/25/2024 10:11:14 81.01, 64.69 61.94 1.05 65
6 05/25/2024 11:00:48 -81.03,-127.51 118.03 05/25/2024 11:00:40 -81.03,-127.33 118.01 3.30 8
7 05/28/2024 05:44:33 81.01, 131.18 61.46 05/28/2024 05:45:25 81.01, 131.18 61.48 0.35 52
8 05/28/2024 06:35:12 -81.04, -60.92 118.48 05/28/2024 06:34:51 -81.04, -60.81 118.48 1.89 21
9 05/31/2024 01:18:55 81.03,-162.06 61.08 05/31/2024 01:19:33 81.03,-162.05 61.10 0.59 38



Historial Predications of SNOs between METOP-C and LANDSAT-8
